Theta_e
278 273 269 273 274 275 273 272 271 274 277 276 275 276 278 280 280 280 280 281 282 282 286 288 289 291 293 294 294 299 306 318 324 325 324 323 322 323 320 320 319 318 317 315
272 267 275 277 277 276 274 272 271 274 277 277 275 274 278 279 280 281 280 281 281 282 284 286 287 288 290 293 294 297 304 313 320 323 324 324 323 322 321 320 318 317 316 315
267 272 277 277 275 274 273 271 271 271 275 275 275 272 274 278 279 281 282 282 282 281 281 283 285 285 287 290 293 297 306 313 318 320 324 319 319 317 317 317 315 316 315 313
268 276 277 275 273 274 268 276 275 272 270 265 274 264 272 275 274 277 279 280 281 282 283 284 284 284 285 289 293 296 306 313 316 319 320 318 316 313 315 316 316 314 314 312
268 273 273 271 273 276 270 276 273 272 269 268 268 266 268 273 271 272 276 278 281 282 282 283 284 285 286 288 291 293 301 311 315 317 318 318 316 316 316 314 314 312 311 312
273 278 273 273 276 276 276 271 270 265 261 255 267 268 266 268 271 272 275 276 280 282 282 283 285 286 285 288 291 293 298 306 313 315 316 316 316 315 312 312 311 309 309 309
271 272 277 277 266 268 265 259 256 254 253 257 270 267 268 271 274 274 274 275 279 280 282 282 282 282 284 284 287 292 298 303 312 314 314 314 315 315 312 311 311 309 307 307
258 261 270 277 272 265 263 262 264 257 257 262 269 262 269 273 275 275 275 276 277 278 279 282 282 283 283 284 287 291 294 299 307 313 313 315 314 314 313 313 312 310 308 307
256 261 275 276 276 271 263 262 271 267 255 256 261 269 272 274 272 273 273 274 274 276 277 279 282 283 282 282 284 286 289 292 294 299 309 313 313 313 312 312 313 311 309 307
265 263 272 275 273 271 269 274 266 260 255 252 259 262 262 267 268 270 270 271 273 274 275 277 281 281 282 282 282 284 285 286 288 292 295 298 300 307 310 310 310 309 308 306
259 264 264 268 261 259 266 266 271 270 265 260 257 258 266 268 269 268 269 272 272 273 274 275 278 281 281 282 282 283 283 284 285 288 291 292 293 296 299 306 307 303 296 298
267 263 257 261 269 269 268 270 272 264 260 265 264 261 271 270 270 270 270 271 272 273 273 274 276 278 279 280 281 281 282 283 284 286 288 288 289 290 289 293 294 297 299 299
264 264 260 260 263 264 261 272 272 271 269 261 261 261 270 271 270 270 269 270 271 273 273 273 274 275 278 278 279 280 281 282 282 284 285 286 286 287 287 287 289 291 297 298
277 269 265 261 263 261 265 268 270 269 262 262 263 264 268 268 268 268 269 270 270 271 271 272 273 274 276 277 277 278 279 280 280 280 282 283 284 285 286 286 287 288 288 292
271 260 257 264 266 265 265 265 267 266 265 262 262 263 267 268 267 268 269 270 270 270 270 271 272 272 274 275 275 276 277 276 279 278 279 280 282 284 285 286 286 287 287 287
271 261 258 264 263 254 257 266 267 269 267 266 266 263 268 270 269 268 268 268 268 269 269 270 271 272 273 274 274 275 275 276 277 277 277 279 281 282 282 284 285 286 286 286
267 263 263 257 256 257 259 261 266 265 267 266 263 266 267 267 267 267 268 268 267 268 269 269 270 271 272 273 275 274 274 274 275 275 276 277 278 279 280 282 283 283 284 285
270 263 267 260 257 251 263 262 264 266 266 268 268 268 266 267 269 268 269 267 267 267 268 269 270 271 272 273 274 274 275 274 273 273 274 275 276 277 278 279 280 281 282 283
273 269 265 259 250 260 265 265 265 262 266 267 266 265 264 265 268 266 264 264 265 266 267 268 269 270 271 271 273 273 272 273 273 272 272 272 272 274 275 276 278 279 281 281
272 271 267 255 254 250 262 266 267 265 260 263 266 264 263 270 260 261 261 261 263 263 262 264 266 268 268 269 272 272 271 270 270 271 272 272 272 272 271 272 273 277 279 280
263 263 263 255 261 260 264 271 274 261 262 260 262 264 267 266 264 262 258 259 258 258 260 261 263 263 264 267 269 268 268 267 269 270 270 271 271 272 272 271 272 272 273 274
262 260 256 256 258 258 269 271 266 268 261 262 260 264 265 262 261 261 262 262 262 261 262 262 261 261 261 265 266 265 264 266 267 268 270 270 271 272 271 268 269 268 269 269
262 266 263 265 263 266 267 268 266 265 267 265 268 267 270 268 266 267 267 267 268 267 265 265 262 262 262 262 263 263 263 264 264 265 267 268 269 271 270 268 269 268 268 268
269 269 268 268 269 266 268 269 267 267 272 273 273 272 271 269 268 267 268 267 267 268 266 266 264 264 264 264 264 262 263 262 260 262 264 266 267 268 270 271 271 268 268 268
271 272 270 270 273 271 271 272 273 270 270 273 273 272 271 269 267 266 268 268 267 267 267 265 264 264 263 263 262 260 261 259 261 262 264 264 265 264 266 269 268 272 270 272
273 272 268 268 274 273 274 275 275 273 272 272 272 271 271 270 268 268 267 267 267 266 265 263 262 262 261 260 259 259 254 254 254 261 262 262 263 263 265 264 266 274 277 279
Wind_Speed
3 3 7 12 10 13 15 15 22 31 25 19 23 25 29 26 22 26 25 21 21 21 20 18 15 11 10 9 9 12 12 10 10 10 10 9 10 8 9 11 16 16 13 16
4 9 11 6 7 11 17 17 27 28 17 10 26 33 27 28 27 25 23 21 19 19 18 16 15 13 9 11 10 9 12 11 12 10 9 7 9 6 9 10 14 18 18 17
6 13 9 11 12 16 22 13 20 21 30 18 17 23 17 18 14 14 16 18 17 17 16 17 17 11 9 10 10 12 13 11 12 15 8 4 5 4 5 8 9 12 17 19
7 5 8 12 15 14 17 6 14 22 16 15 8 20 18 10 9 15 14 14 13 18 20 20 19 15 10 12 9 11 9 9 10 15 12 12 9 7 3 7 8 9 11 14
12 9 13 15 11 10 13 12 16 20 18 15 5 8 6 9 10 18 17 18 19 13 19 18 17 18 12 11 12 9 9 10 8 12 15 13 10 7 5 4 8 8 9 9
16 6 4 8 7 6 14 9 16 2 3 2 8 6 1 5 10 14 16 17 19 18 17 14 12 6 5 2 5 5 8 11 10 12 15 17 17 12 9 9 8 7 8 7
7 4 4 4 7 7 9 7 6 8 6 7 9 12 5 8 11 12 18 18 18 18 15 14 12 8 5 6 5 4 3 10 12 15 15 14 13 14 16 15 10 10 7 7
1 11 2 4 3 8 2 5 3 8 6 20 11 5 4 7 7 11 14 15 16 17 17 11 11 9 7 7 6 6 5 3 3 13 16 15 15 10 10 12 10 9 9 10
1 8 6 14 7 7 7 0 4 6 1 3 4 3 4 16 17 15 16 15 16 17 17 16 9 9 8 8 8 8 8 8 6 5 4 8 11 10 9 12 12 11 10 9
5 12 7 3 5 3 6 2 4 3 6 7 6 4 5 16 19 18 17 16 16 16 17 17 9 9 8 7 7 10 9 9 7 8 8 6 7 6 7 8 9 10 10 11
4 5 9 6 3 6 4 2 4 4 3 4 7 6 3 9 13 15 15 16 15 15 15 16 13 8 7 8 9 10 10 10 9 7 6 8 8 8 6 5 8 8 6 9
7 4 5 13 12 5 5 4 2 3 5 5 3 7 1 6 10 12 14 15 14 14 14 15 13 10 9 11 8 14 12 11 10 7 8 11 9 8 7 3 2 7 8 9
5 3 6 12 8 6 2 3 5 5 4 4 3 6 2 9 11 12 13 13 13 15 15 14 13 11 11 12 13 14 13 11 11 11 11 10 10 10 8 6 3 1 7 7
8 5 12 11 14 2 14 15 13 5 2 3 7 10 7 10 12 12 13 12 12 11 13 13 12 13 13 14 14 14 12 10 10 11 12 11 10 8 7 6 5 2 2 5
7 5 3 13 19 15 17 18 15 7 5 5 5 6 7 5 8 10 10 12 12 12 13 12 12 11 13 13 13 12 11 13 11 11 11 10 9 8 8 7 6 5 4 4
3 4 2 21 13 4 6 9 9 8 3 6 6 8 2 2 4 9 9 11 12 13 13 12 11 12 13 13 12 10 9 11 10 13 11 10 10 9 8 7 6 6 5 5
5 3 1 8 3 6 4 6 4 3 3 4 3 5 2 1 5 7 11 9 9 10 11 12 12 12 11 12 11 10 9 9 12 12 12 13 11 9 8 7 7 7 5 4
8 5 3 7 7 4 8 2 4 6 6 8 6 5 3 3 5 4 5 9 12 13 14 13 11 12 13 11 10 9 10 10 13 13 12 12 10 9 9 8 8 7 4 4
17 7 3 2 3 8 5 4 5 5 7 7 6 1 3 1 4 2 1 1 4 7 8 9 9 9 11 12 12 11 13 13 13 12 11 9 8 8 9 9 8 6 5 5
9 10 5 2 2 6 8 3 4 4 5 4 5 3 2 4 2 4 4 2 4 5 5 7 10 10 11 12 10 11 11 10 11 10 9 7 7 7 8 7 6 5 4 4
4 3 11 3 4 9 7 3 4 5 8 4 5 4 4 4 4 4 1 2 2 3 5 5 7 6 7 9 8 9 8 10 9 7 6 7 8 7 7 6 5 5 5 5
7 7 4 3 1 9 6 4 5 6 1 5 4 5 4 3 1 2 1 1 2 4 5 5 4 4 4 5 5 5 7 7 8 8 7 7 7 6 6 6 6 5 6 5
2 6 6 8 8 5 6 5 4 4 5 6 6 5 6 6 5 5 4 3 1 1 1 1 2 4 3 3 4 5 6 7 7 6 7 7 7 6 5 5 6 4 5 4
4 4 3 2 3 5 7 4 3 5 5 5 6 6 7 7 7 5 3 2 1 2 3 3 5 5 7 8 8 5 6 6 5 5 5 5 6 7 6 4 3 3 4 4
4 6 5 4 6 3 3 6 4 4 2 5 5 6 8 8 7 6 4 3 0 3 3 3 5 5 5 5 5 5 6 6 6 5 5 6 4 5 5 4 2 3 2 2
5 7 5 5 4 3 6 3 5 8 9 8 8 7 6 7 8 6 5 4 2 2 2 3 4 5 6 6 6 6 5 4 3 4 4 3 4 4 4 4 5 9 7 10
Wind_Direction
236 237 238 258 213 250 266 273 275 280 287 284 285 282 274 276 269 263 261 257 251 249 244 251 250 248 233 243 250 261 261 235 201 194 200 193 186 174 174 178 170 164 168 161
348 240 269 246 251 262 270 275 279 286 283 299 297 283 284 282 272 264 262 259 250 251 252 246 245 244 245 239 231 249 251 237 213 198 201 198 187 182 177 182 181 172 171 167
180 256 292 281 277 302 282 266 277 276 305 299 285 280 281 289 274 270 271 271 261 247 250 253 253 238 233 249 235 234 239 234 217 194 187 174 147 121 169 172 182 184 177 168
233 273 268 275 285 294 283 231 279 295 303 296 4 289 310 300 25 14 349 341 321 315 265 249 248 247 228 238 237 225 223 223 218 189 182 181 180 169 157 167 182 173 180 175
258 284 291 295 271 290 262 295 280 279 274 286 280 238 291 28 355 345 334 327 324 318 310 251 244 246 232 229 240 220 218 208 200 186 183 183 179 165 156 152 153 169 160 180
257 253 237 235 290 255 287 314 305 10 99 11 254 210 281 14 334 324 325 325 328 330 322 335 311 308 258 301 273 258 216 218 194 183 178 178 177 163 152 157 159 162 165 162
304 247 259 208 352 342 41 24 327 343 354 236 309 299 306 0 348 330 327 325 330 335 330 332 333 340 359 346 345 325 278 218 196 182 177 178 172 160 165 164 165 157 165 171
296 315 236 194 166 238 286 151 269 304 313 298 311 245 164 45 3 342 330 325 330 336 334 334 335 345 356 11 8 24 12 63 242 194 183 175 171 168 169 170 165 169 174 182
319 269 272 283 286 127 280 228 227 267 296 359 271 276 181 352 354 350 341 337 336 336 336 331 358 3 12 27 25 34 28 42 31 57 132 178 166 164 167 169 177 178 172 172
272 294 276 327 2 317 170 318 286 358 311 300 286 286 281 333 339 341 341 342 338 337 339 340 349 12 17 22 35 50 41 39 11 50 58 74 67 93 134 154 167 171 164 159
143 211 286 17 212 207 342 274 239 251 229 281 306 280 262 323 333 334 338 341 337 340 343 346 347 340 17 28 41 56 49 42 34 36 64 63 52 46 50 157 167 159 141 151
207 220 273 241 273 195 172 241 260 246 292 238 270 280 343 346 340 340 338 342 343 349 348 347 340 339 25 39 24 52 37 38 33 23 56 59 52 47 46 13 170 144 164 171
209 260 310 325 354 1 161 224 254 304 269 228 260 271 11 9 354 344 341 345 346 353 351 350 346 352 28 29 27 48 34 33 30 32 40 50 46 42 28 17 333 148 159 185
268 224 232 252 265 215 294 290 293 251 225 273 245 297 345 353 343 341 343 344 347 352 354 352 352 6 22 28 28 36 32 32 37 44 37 35 32 41 32 19 13 56 88 164
193 233 188 261 265 273 262 269 277 217 218 209 270 295 319 345 335 332 332 342 352 358 360 356 354 6 27 28 30 27 31 25 33 49 44 31 23 29 30 24 16 31 46 109
191 260 129 288 276 187 258 252 240 245 200 253 272 291 173 72 349 342 352 350 353 352 354 1 3 11 24 28 28 28 31 34 35 45 38 32 30 25 22 15 17 35 36 42
174 171 343 263 332 334 340 231 199 224 211 184 247 241 4 44 28 346 345 355 351 349 353 356 4 17 20 24 24 30 23 31 37 41 33 30 22 18 13 13 27 31 22 32
225 162 219 279 355 359 242 207 169 206 229 207 253 257 248 213 168 74 4 347 349 352 357 360 2 5 11 14 18 25 35 40 40 38 30 26 13 13 10 20 20 16 8 25
207 199 247 235 193 286 328 225 185 146 285 188 210 207 306 306 106 288 313 10 322 333 344 350 358 5 4 6 7 19 26 28 31 26 23 10 9 12 13 16 7 6 5 13
184 195 189 81 142 234 239 251 160 106 311 213 162 172 187 163 73 264 301 338 349 351 336 351 356 3 12 1 6 29 26 24 22 10 4 357 7 18 13 360 358 355 352 6
143 173 219 237 267 287 243 168 133 76 240 197 173 174 181 174 191 194 250 344 272 274 330 359 7 8 354 348 360 28 21 21 350 344 347 2 6 7 12 355 360 352 3 16
170 152 191 89 156 278 172 92 163 215 243 167 195 175 158 165 164 155 143 271 8 356 350 2 9 1 327 349 3 28 26 341 342 347 5 10 9 9 7 9 357 4 13 21
290 186 178 177 211 249 243 201 238 174 159 200 172 175 159 153 177 170 176 174 139 89 297 275 343 307 304 341 13 13 350 352 355 359 4 3 359 6 10 18 4 2 10 23
252 154 211 83 256 227 242 258 241 201 201 171 168 159 157 160 159 169 177 197 19 15 4 354 356 355 357 359 6 10 358 351 349 356 358 358 6 355 358 1 14 10 4 5
209 144 210 259 287 306 284 234 213 201 218 153 142 159 165 154 172 171 187 192 287 344 355 357 344 335 336 348 348 351 357 359 352 346 350 355 350 355 345 342 308 336 274 266
188 203 178 231 209 200 261 283 179 179 191 180 161 158 166 165 173 168 188 190 185 249 325 333 316 315 331 345 339 337 1 3 351 341 349 347 339 340 339 344 339 347 350 344